Main page
METAR-TAF:

METAR-TAF

Airports :

Paulo Afonso Airport

Paulo Afonso, Bahia, Brazil

latitude: 09-24S, longitude: 038-13W, elevation: 253 m

Current weather observation

The report was made 2 hours and 29 minutes ago, at 12:00 UTC
Wind 12 kt from the East/Southeast
Temperature 30°C
Humidity 49%
Pressure 1015 hPa
Visibility 10 km or more
Scattered clouds at a height of 2000 ft

METAR: SBUF 141200Z 11012KT 9999 SCT020 30/18 Q1015

Time: 12:29 (14:29 UTC)


TAF: missing

Weather observations and forecasts of more than 4000 airports (METAR and TAF reports).

The available stations are represented by yellow and red dots on the map.

Hover mouse over dot to see the name of the station.

Then click to see weather observations and forecasts.

To change the map : click on the green buttons with a black cross to zoom in, on the green button with a dash to zoom out, or on the green arrows for adjacent maps.


METAR-TAF: